TimeEDT,TemperatureF,Dew PointF,Humidity,Sea Level PressureIn,VisibilityMPH,Wind Direction,Wind SpeedMPH,Gust SpeedMPH,PrecipitationIn,Events,Conditions,WindDirDegrees,DateUTC
12:15 AM,39.2,35.6,87,30.11,10.0,NNE,11.5,-,N/A,Rain,Light Rain,20,2013-05-10 04:15:00
12:34 AM,37.4,35.6,93,30.11,10.0,NNE,8.1,-,N/A,Rain,Light Rain,30,2013-05-10 04:34:00
1:15 AM,37.4,35.6,93,30.11,7.0,NNE,8.1,-,N/A,Rain,Rain,20,2013-05-10 05:15:00
1:54 AM,37.4,35.6,93,30.11,7.0,NNE,10.4,19.6,N/A,Rain,Light Rain,30,2013-05-10 05:54:00
2:15 AM,35.6,35.6,100,30.10,7.0,NNE,9.2,17.3,N/A,Rain,Light Rain,20,2013-05-10 06:15:00
2:34 AM,35.6,33.8,93,30.10,7.0,NNE,11.5,18.4,N/A,Rain,Light Rain,30,2013-05-10 06:34:00
2:55 AM,35.6,33.8,93,30.10,10.0,NNE,11.5,-,N/A,Rain,Light Rain,20,2013-05-10 06:55:00
3:15 AM,35.6,33.8,93,30.10,10.0,North,10.4,-,N/A,Rain,Light Rain,10,2013-05-10 07:15:00
3:34 AM,35.6,33.8,93,30.09,7.0,NNE,10.4,18.4,N/A,Rain,Light Rain,30,2013-05-10 07:34:00
3:55 AM,35.6,33.8,93,30.09,7.0,NNE,9.2,16.1,N/A,Rain,Light Rain,20,2013-05-10 07:55:00
4:15 AM,33.8,33.8,100,30.09,7.0,NNE,10.4,-,N/A,Snow,Light Snow,30,2013-05-10 08:15:00
4:34 AM,33.8,33.8,100,30.08,7.0,NNE,11.5,-,N/A,Rain,Light Rain,30,2013-05-10 08:34:00
4:55 AM,33.8,32.0,93,30.08,7.0,NNE,9.2,-,N/A,Rain,Light Rain,30,2013-05-10 08:55:00
5:14 AM,33.8,32.0,93,30.08,7.0,NNE,9.2,-,N/A,Snow,Light Snow,20,2013-05-10 09:14:00
5:34 AM,33.8,32.0,93,30.07,7.0,North,9.2,-,N/A,,Overcast,10,2013-05-10 09:34:00
5:55 AM,33.8,30.2,87,30.07,10.0,NNE,10.4,17.3,N/A,,Overcast,20,2013-05-10 09:55:00
6:14 AM,33.8,30.2,87,30.07,10.0,NNE,10.4,-,N/A,Snow,Light Snow,30,2013-05-10 10:14:00
6:34 AM,33.8,30.2,87,30.07,10.0,NNE,8.1,-,N/A,,Overcast,20,2013-05-10 10:34:00
6:55 AM,33.8,30.2,87,30.07,10.0,NNE,9.2,-,N/A,,Overcast,20,2013-05-10 10:55:00
7:14 AM,33.8,30.2,87,30.07,10.0,NNE,6.9,-,N/A,,Overcast,20,2013-05-10 11:14:00
7:35 AM,33.8,32.0,93,30.07,10.0,NNE,8.1,-,N/A,,Overcast,20,2013-05-10 11:35:00
8:14 AM,33.8,32.0,93,30.06,10.0,NNE,8.1,-,N/A,,Overcast,20,2013-05-10 12:14:00
8:35 AM,33.8,32.0,93,30.06,10.0,NNE,9.2,-,N/A,,Overcast,20,2013-05-10 12:35:00
9:14 AM,35.6,32.0,87,30.07,10.0,NNE,9.2,-,N/A,,Overcast,20,2013-05-10 13:14:00
9:35 AM,35.6,32.0,87,30.07,10.0,NNE,9.2,-,N/A,,Overcast,20,2013-05-10 13:35:00
9:54 AM,35.6,32.0,87,30.07,10.0,NNE,10.4,-,N/A,,Overcast,20,2013-05-10 13:54:00
10:14 AM,35.6,32.0,87,30.07,10.0,NNE,9.2,-,N/A,,Overcast,20,2013-05-10 14:14:00
10:35 AM,35.6,30.2,81,30.06,10.0,North,6.9,-,N/A,,Overcast,10,2013-05-10 14:35:00
10:54 AM,35.6,30.2,81,30.06,10.0,NNE,9.2,-,N/A,,Overcast,20,2013-05-10 14:54:00
11:14 AM,35.6,30.2,81,30.05,10.0,NNE,6.9,-,N/A,,Overcast,20,2013-05-10 15:14:00
11:35 AM,37.4,30.2,75,30.06,10.0,NNE,9.2,-,N/A,,Overcast,30,2013-05-10 15:35:00
11:54 AM,37.4,30.2,75,30.06,10.0,NNE,6.9,-,N/A,,Overcast,20,2013-05-10 15:54:00
12:15 PM,37.4,28.4,70,30.06,10.0,North,8.1,-,N/A,,Overcast,10,2013-05-10 16:15:00
12:35 PM,37.4,30.2,75,30.06,10.0,NNE,5.8,-,N/A,,Overcast,20,2013-05-10 16:35:00
1:15 PM,42.8,30.2,61,30.05,10.0,NNE,6.9,-,N/A,,Overcast,20,2013-05-10 17:15:00
1:35 PM,42.8,32.0,66,30.04,10.0,NE,8.1,-,N/A,,Overcast,40,2013-05-10 17:35:00
1:54 PM,44.6,30.2,57,30.03,10.0,North,8.1,-,N/A,,Overcast,10,2013-05-10 17:54:00
2:15 PM,44.6,32.0,61,30.03,10.0,NE,6.9,-,N/A,,Overcast,50,2013-05-10 18:15:00
2:34 PM,46.4,33.8,62,30.03,10.0,NNE,3.5,-,N/A,,Overcast,20,2013-05-10 18:34:00
2:54 PM,46.4,33.8,62,30.02,10.0,ENE,8.1,-,N/A,,Overcast,60,2013-05-10 18:54:00
3:15 PM,46.4,32.0,57,30.02,10.0,ENE,11.5,-,N/A,,Overcast,60,2013-05-10 19:15:00
3:34 PM,46.4,32.0,57,30.01,10.0,ENE,13.8,-,N/A,,Overcast,70,2013-05-10 19:34:00
3:54 PM,46.4,30.2,53,30.01,10.0,NE,10.4,-,N/A,,Overcast,40,2013-05-10 19:54:00
4:15 PM,46.4,32.0,57,30.01,10.0,NNE,6.9,-,N/A,,Overcast,30,2013-05-10 20:15:00
4:34 PM,46.4,32.0,57,30.00,10.0,NE,9.2,-,N/A,,Overcast,50,2013-05-10 20:34:00
4:55 PM,46.4,33.8,62,30.00,10.0,NE,9.2,-,N/A,,Overcast,50,2013-05-10 20:55:00
5:14 PM,46.4,35.6,66,30.01,10.0,NE,5.8,-,N/A,,Overcast,40,2013-05-10 21:14:00
5:35 PM,46.4,33.8,62,30.00,10.0,NNE,6.9,-,N/A,,Overcast,30,2013-05-10 21:35:00
5:54 PM,46.4,33.8,62,29.99,10.0,NE,8.1,-,N/A,,Overcast,50,2013-05-10 21:54:00
6:14 PM,48.2,33.8,58,29.98,10.0,ENE,6.9,-,N/A,,Overcast,60,2013-05-10 22:14:00
6:35 PM,48.2,33.8,58,29.98,10.0,ENE,10.4,-,N/A,,Overcast,70,2013-05-10 22:35:00
6:54 PM,48.2,32.0,54,29.98,10.0,ENE,6.9,-,N/A,,Overcast,70,2013-05-10 22:54:00
7:15 PM,48.2,33.8,58,29.97,10.0,ENE,8.1,-,N/A,,Overcast,70,2013-05-10 23:15:00
7:35 PM,46.4,33.8,62,29.97,10.0,ENE,5.8,-,N/A,,Overcast,60,2013-05-10 23:35:00
7:54 PM,46.4,35.6,66,29.96,10.0,East,5.8,-,N/A,,Overcast,80,2013-05-10 23:54:00
8:15 PM,46.4,35.6,66,29.95,10.0,East,5.8,-,N/A,,Scattered Clouds,90,2013-05-11 00:15:00
8:35 PM,44.6,35.6,71,29.95,10.0,East,3.5,-,N/A,,Clear,100,2013-05-11 00:35:00
8:54 PM,44.6,35.6,71,29.96,10.0,Calm,Calm,-,N/A,,Clear,0,2013-05-11 00:54:00
9:15 PM,42.8,35.6,76,29.96,10.0,Calm,Calm,-,N/A,,Clear,0,2013-05-11 01:15:00
9:34 PM,39.2,33.8,81,29.96,10.0,Calm,Calm,-,N/A,,Clear,0,2013-05-11 01:34:00
9:54 PM,39.2,35.6,87,29.96,10.0,Calm,Calm,-,N/A,,Clear,0,2013-05-11 01:54:00
10:15 PM,39.2,35.6,87,29.96,10.0,Calm,Calm,-,N/A,,Clear,0,2013-05-11 02:15:00
10:34 PM,39.2,28.4,65,29.96,10.0,North,4.6,-,N/A,,Clear,350,2013-05-11 02:34:00
10:54 PM,37.4,28.4,70,29.96,10.0,NNW,3.5,-,N/A,,Scattered Clouds,330,2013-05-11 02:54:00
11:15 PM,37.4,28.4,70,29.96,10.0,NNW,5.8,-,N/A,,Overcast,340,2013-05-11 03:15:00
11:34 PM,35.6,28.4,75,29.96,10.0,NNW,4.6,-,N/A,,Overcast,340,2013-05-11 03:34:00
11:55 PM,35.6,28.4,75,29.95,10.0,North,3.5,-,N/A,,Scattered Clouds,350,2013-05-11 03:55:00